Tracking 23758 objects as of 26-Oct-2021
HD Live streaming from Space Station
objects crossing your sky now

FLOCK 4V 14

Track FLOCK 4V 14 now!
10-day predictions
FLOCK 4V 14 is classified as:


NORAD ID: 46286
Int'l Code: 2020-061Q
Perigee: 536.9 km
Apogee: 541.7 km
Inclination: 97.5 °
Period: 95.3 minutes
Semi major axis: 6910 km
RCS: Unknown
Launch date: September 3, 2020
Source: United States (US)
Launch site: FRENCH GUIANA (FRGUI)
aabbcc
Your satellite tracking list
Your tracking list is empty




NASA's NSSDC Master Catalog

Two Line Element Set (TLE):
1 46286U 20061Q   21299.15267863  .00002050  00000-0  12538-3 0  9995
2 46286  97.4767   9.6259 0003491  14.2304 345.9024 15.11331728 63086
Source of the keplerian elements: AFSPC